Regional Weather Roundup
Issued by NWS

Home | Current Version | Previous Version | Graphics & Text | Print | Product List | Glossary On
Versions: 1 2 3 4 5 6 7 8 9 10 11 12 13 14 15 16 17 18 19 20 21 22 23 24 25 26 27 28 29 30 31 32 33 34 35 36 37 38 39 40 41 42 43 44 45 46 47 48 49 50
000
ASUS44 KMEG 282010
RWRTN
TENNESSEE HOURLY STATE WEATHER ROUNDUP
NATIONAL WEATHER SERVICE MEMPHIS TN
300 PM CDT MON JUL 28 2014

TNZ002-004-019-021-049-052-054-088>092-282100-
WEST TENNESSEE

CITY           SKY/WX    TMP DP  RH WIND       PRES   REMARKS
MEMPHIS INTL   MOSUNNY   85  63  47 N13G21    30.05F
NWS MEMPHIS      N/A     83 N/A N/A MISG        N/A
JACKSON        MOSUNNY   83  62  49 NW13      30.05S
DYERSBURG      PTSUNNY   82  59  44 NW10G16   30.06S
UNION CITY     MOSUNNY   79  63  57 NW12      30.05R
PARIS          PTSUNNY   77  62  59 NW7       30.05S
LEXINGTON      MOSUNNY   81  63  54 NW9       30.03S
SAVANNAH       PTSUNNY   82  64  54 N12       30.03F
$$

TNZ008-025-027-028-033-062-065-066-282100-
NORTH MIDDLE TENNESSEE

CITY           SKY/WX    TMP DP  RH WIND       PRES   REMARKS
NASHVILLE      PTSUNNY   82  59  45 NW15      30.00S
DICKSON        MOSUNNY   79  61  53 NW9       30.02S
PORTLAND       MOSUNNY   79  61  53 NW12      29.99F
CLARKSVILLE    CLOUDY    82  58  43 N15       30.01S
LEBANON        MOSUNNY   80  59  48 NW10      29.98S
SMYRNA         PTSUNNY   87  61  41 N12       30.00S
MURFREESBORO   MOSUNNY   82  59  45 W8        29.99
COOKEVILLE     PTSUNNY   81  64  57 NW8       30.00S
LIVINGSTON       N/A     74  59  59 NW8       30.01R
CROSSVILLE     PTSUNNY   74  59  59 NW9       30.03R
$$

TNZ061-075-076-078-094-096-097-282100-
SOUTH MIDDLE TENNESSEE

CITY           SKY/WX    TMP DP  RH WIND       PRES   REMARKS
LEWISBURG      MOSUNNY   82  62  50 N8        30.01S
FAYETTEVILLE   MOSUNNY   79  59  50 NW15      30.01S
TULLAHOMA      MOSUNNY   79  61  53 N8        30.02S
WINCHESTER     PTSUNNY   82  63  51 N8        30.00F
MCMINNVILLE    MOSUNNY   79  63  57 NW12      30.01S
COLUMBIA       PTSUNNY   82  63  51 VRB7      30.00F
SHELBYVILLE    PTSUNNY   82  64  54 NW12      30.01S
$$

TNZ017-018-042-046-047-282100-
NORTHEAST TENNESSEE

CITY           SKY/WX    TMP DP  RH WIND       PRES   REMARKS
TRI CITIES     PTSUNNY   76  57  51 W14       29.95R
ELIZABETHTON   MOCLDY    73  59  60 W10         N/A
$$

TNZ012-013-036-069-073-074-282100-
CENTRAL EAST TENNESSEE

CITY           SKY/WX    TMP DP  RH WIND       PRES   REMARKS
KNOXVILLE      PTSUNNY   81  60  48 W9        29.95S
OAK RIDGE      MOSUNNY   83  58  42 VRB6      29.97S
GATLINBURG     MOCLDY    79  61  53 VRB6      29.95S
MORRISTOWN     CLEAR     81  61  50 W13       29.97S
$$

TNZ083-085-099-282100-
SOUTHEAST TENNESSEE

CITY           SKY/WX    TMP DP  RH WIND       PRES   REMARKS
CHATTANOOGA    MOSUNNY   83  57  41 N13       29.97S
$$

SKY/WX REPORTED AS FAIR MEANS FEW OR NO CLOUDS BELOW
12 THOUSAND FEET.




USA.gov is the U.S. government's official web portal to all federal, state and local government web resources and services.